Regional Weather Roundup
Issued by NWS Little Rock, AR

Home | Current Version | Previous Version | Graphics & Text | Print | Product List | Glossary On
Versions: 1 2 3 4 5 6 7 8 9 10 11 12 13 14 15 16 17 18 19 20 21 22 23 24 25 26 27 28 29 30 31 32 33 34 35 36 37 38 39 40 41 42 43 44 45 46 47 48 49 50
000
ASUS44 KLZK 022105
RWRLZK

WEATHER ROUNDUP FOR ARKANSAS
NATIONAL WEATHER SERVICE LITTLE ROCK AR
300 PM CST MON MAR 02 2015

NOTE: "FAIR" INDICATES FEW OR NO CLOUDS BELOW 12,000 FEET WITH NO
SIGNIFICANT WEATHER AND/OR OBSTRUCTIONS TO VISIBILITY.

ARZ001-003-010-029-022200-
NORTHWEST ARKANSAS

CITY           SKY/WX    TMP DP  RH WIND       PRES   REMARKS
FAYETTEVILLE   CLOUDY    38  31  76 E6        30.27F
FORT SMITH     CLOUDY    39  31  72 E9        30.31F
HARRISON       CLOUDY    34  25  69 SE8       30.31F WCI  27
BENTONVILLE    CLOUDY    36  25  64 SE10      30.29F
ROGERS         CLOUDY    36  25  64 E8        30.28F
SILOAM SPGS    CLOUDY    37  27  65 E5        30.28F
HIGHFILL       CLOUDY    37  27  67 SE9       30.27F
SPRINGDALE     CLOUDY    37  28  70 SE7       30.30F
$$

ARZ004-005-016-022200-
NORTH CENTRAL ARKANSAS

CITY           SKY/WX    TMP DP  RH WIND       PRES   REMARKS
BATESVILLE     CLOUDY    37  19  48 E8        30.38S
FLIPPIN        CLOUDY    37  19  48 SE6       30.35S
MTN HOME       CLOUDY    36  20  52 E7        30.34F
$$

ARZ040-041-022200-
WEST CENTRAL ARKANSAS

CITY           SKY/WX    TMP DP  RH WIND       PRES   REMARKS
MENA           CLOUDY    37  36  93 E6        30.28S
MOUNT IDA      CLOUDY    35  32  88 VRB3      30.27F
$$

ARZ009-017-025-026-028-022200-
NORTHEAST ARKANSAS

CITY           SKY/WX    TMP DP  RH WIND       PRES   REMARKS
CORNING        FAIR      36  23  60 E9        30.41S
JONESBORO      CLOUDY    35  25  66 NE10      30.39F WCI  27
NEWPORT        LGT RAIN  36  28  73 N13       30.40F
WALNUT RIDGE   CLOUDY    36  21  55 NE10      30.40S
BLYTHEVILLE    CLOUDY    40  28  62 NE9       30.37F
NW BLYTHEVILLE CLOUDY    39  28  65 N10       30.38F
$$

ARZ022-023-033-042-044-022200-
CENTRAL ARKANSAS

CITY           SKY/WX    TMP DP  RH WIND       PRES   REMARKS
LITTLE ROCK    CLOUDY    38  29  70 NE9       30.37F
N LITTLE ROCK  CLOUDY    36  31  81 NE10      30.37F
JACKSONVILLE   PTSUNNY   37  29  71 NE8       30.36F
SEARCY         CLOUDY    38  28  67 NE10      30.39F
HOT SPRINGS    CLOUDY    37  33  85 E8        30.32F
RUSSELLVILLE   CLOUDY    40  26  57 SE7       30.33F
CLINTON        CLOUDY    39  23  52 SE6       30.37F
$$

ARZ036-022200-
EAST ARKANSAS

CITY           SKY/WX    TMP DP  RH WIND       PRES   REMARKS
WEST MEMPHIS   CLOUDY    40  34  79 N8        30.36R
$$

ARZ050-053-066-070-073-022200-
SOUTHWEST ARKANSAS

CITY           SKY/WX    TMP DP  RH WIND       PRES   REMARKS
ARKADELPHIA    LGT RAIN  38  35  89 NE9       30.34F FOG
CAMDEN         CLOUDY    37  32  81 MISG      30.34F
TEXARKANA      CLOUDY    38  36  92 E7        30.29F
EL DORADO      CLOUDY    38  36  92 N6        30.32S FOG
DE QUEEN       CLOUDY    39  36  89 E9        30.28F
$$

ARZ056-057-069-022200-
SOUTHEAST ARKANSAS

CITY           SKY/WX    TMP DP  RH WIND       PRES   REMARKS
PINE BLUFF     LGT RAIN  35  33  92 N10       30.36F FOG     WCI  27
STUTTGART      CLOUDY    36  30  80 NE13      30.36F
MONTICELLO     CLOUDY    37  34  89 NE5       30.33S FOG

$$




USA.gov is the U.S. government's official web portal to all federal, state and local government web resources and services.